FW3754 Weather Reports


Display with metric or nautical units.
time (UTC)temp
F
wind
direction
speed
MPH
gust
MPH
rain 1hr
in
rain 24hr
in
rain mn
in
humidity
%
barometer
mb
20220930224543 85 113 1.0 0.0 0.00 0.00 0.00 65 1006.6
20220930223030 86 124 4.0 0.0 0.00 0.00 0.00 62 1006.6
20220930221528 85 113 2.0 0.0 0.00 0.00 0.00 64 1006.6
20220930214522 84 336 3.0 0.0 0.00 0.00 0.00 62 1006.3
20220930213022 83 286 2.0 0.0 0.00 0.00 0.00 63 1006.4
20220930211520 83 296 3.0 0.0 0.00 0.00 0.00 61 1006.4
20220930204518 83 344 4.0 0.0 0.00 0.00 0.00 62 1006.6
20220930203018 83 40 4.0 0.0 0.00 0.00 0.00 61 1006.6
20220930201517 83 315 4.0 0.0 0.00 0.00 0.00 66 1006.7
20220930200012 82 289 5.0 0.0 0.00 0.00 0.00 64 1006.8
20220930194512 82 300 4.0 0.0 0.00 0.00 0.00 66 1006.8
20220930193011 82 305 4.0 0.0 0.00 0.00 0.00 65 1006.8
20220930191512 82 330 5.0 0.0 0.00 0.00 0.00 64 1006.8
20220930190007 81 313 6.0 0.0 0.00 0.00 0.00 67 1007.0
20220930184512 81 274 6.0 0.0 0.00 0.00 0.00 68 1007.0
20220930183008 81 318 6.0 0.0 0.00 0.00 0.00 69 1007.1
20220930181504 81 311 6.0 0.0 0.00 0.00 0.00 67 1007.2
20220930180001 80 360 6.0 0.0 0.00 0.00 0.00 68 1007.4
20220930174501 80 316 4.0 0.0 0.00 0.00 0.00 69 1007.7
20220930173104 80 289 4.0 0.0 0.00 0.00 0.00 69 1008.1
20220930171558 79 197 3.0 0.0 0.00 0.00 0.00 69 1008.4
20220930170113 79 348 4.0 0.0 0.00 0.00 0.00 71 1008.4
20220930164556 77 270 4.0 0.0 0.00 0.00 0.00 73 1008.7
20220930163052 77 315 4.0 0.0 0.00 0.00 0.00 73 1008.7
20220930161556 76 309 6.0 0.0 0.00 0.00 0.00 74 1008.7
20220930160048 75 315 6.0 0.0 0.00 0.00 0.00 74 1008.7
20220930154553 75 284 7.0 0.0 0.00 0.00 0.00 75 1008.8
20220930153050 74 311 7.0 0.0 0.00 0.00 0.00 77 1008.8
20220930151553 75 321 7.0 0.0 0.00 0.00 0.00 74 1008.9
20220930150040 73 310 7.0 0.0 0.00 0.00 0.00 76 1009.0
20220930144539 73 334 8.0 0.0 0.00 0.00 0.00 77 1008.8
20220930143039 73 308 7.0 0.0 0.00 0.00 0.00 78 1008.7
20220930141550 72 317 7.0 0.0 0.00 0.00 0.00 78 1008.7
20220930140041 72 348 7.0 0.0 0.00 0.00 0.00 79 1008.5
20220930134550 71 311 10.0 0.0 0.00 0.00 0.00 79 1008.6
20220930133034 71 300 8.0 0.0 0.00 0.00 0.00 79 1008.5
20220930131536 70 289 8.0 0.0 0.00 0.00 0.00 80 1008.5
20220930130053 70 321 9.0 0.0 0.00 0.00 0.00 81 1008.4
20220930124529 70 306 7.0 0.0 0.00 0.00 0.00 81 1008.3
20220930123034 69 300 8.0 0.0 0.00 0.00 0.00 81 1008.2
20220930121526 70 306 7.0 0.0 0.00 0.00 0.00 82 1008.0
20220930120038 69 307 7.0 0.0 0.00 0.00 0.00 82 1008.0
20220930114544 69 300 8.0 0.0 0.00 0.00 0.00 83 1007.9
20220930113036 69 330 7.0 0.0 0.00 0.00 0.00 83 1007.8
20220930111528 69 323 6.0 0.0 0.00 0.00 0.00 83 1007.8
20220930110051 69 338 7.0 0.0 0.00 0.00 0.00 83 1007.6
20220930104517 69 317 7.0 0.0 0.00 0.00 0.00 83 1007.5
20220930103016 69 333 7.0 0.0 0.00 0.00 0.00 83 1007.5
20220930101527 69 328 6.0 0.0 0.00 0.00 0.00 84 1007.4
20220930100013 69 298 6.0 0.0 0.00 0.00 0.00 84 1007.4
20220930094512 69 316 5.0 0.0 0.00 0.00 0.00 83 1007.3
20220930093010 70 305 6.0 0.0 0.00 0.00 0.00 82 1007.2
20220930091511 69 295 7.0 0.0 0.00 0.00 0.00 84 1007.1
20220930090010 69 318 7.0 0.0 0.00 0.00 0.00 83 1007.1
20220930084508 69 306 8.0 0.0 0.00 0.00 0.00 83 1007.0
20220930083007 69 324 7.0 0.0 0.00 0.00 0.00 83 1007.0
20220930081506 69 312 6.0 0.0 0.00 0.00 0.00 83 1006.9
20220930080006 69 285 7.0 0.0 0.00 0.00 0.00 83 1006.9
20220930074504 70 315 7.0 0.0 0.00 0.00 0.00 83 1006.8
20220930073003 70 325 7.0 0.0 0.00 0.00 0.00 83 1006.8
20220930071503 70 328 9.0 0.0 0.00 0.00 0.00 82 1006.8
20220930070105 71 311 8.0 0.0 0.00 0.00 0.00 82 1006.6
20220930064622 71 302 10.0 0.0 0.00 0.00 0.00 81 1006.7
20220930063057 71 311 9.0 0.0 0.00 0.00 0.00 82 1006.7
20220930061556 71 327 9.0 0.0 0.00 0.00 0.00 82 1006.8
20220930060107 71 306 9.0 0.0 0.00 0.00 0.00 82 1006.9
20220930054552 71 309 7.0 0.0 0.00 0.00 0.00 82 1007.0
20220930053118 71 321 8.0 0.0 0.00 0.00 0.00 82 1006.9
20220930051551 72 308 9.0 0.0 0.00 0.00 0.00 81 1006.9
20220930050054 72 329 7.0 0.0 0.00 0.00 0.00 81 1007.0
20220930044547 72 329 10.0 0.0 0.00 0.00 0.00 81 1007.0
20220930043109 73 304 9.0 0.0 0.00 0.00 0.00 81 1007.0
20220930041543 73 336 9.0 0.0 0.00 0.00 0.00 81 1007.0
20220930040039 73 317 8.0 0.0 0.00 0.00 0.00 82 1007.2
20220930034546 73 308 8.0 0.0 0.00 0.00 0.00 82 1007.1
20220930033042 73 329 7.0 0.0 0.00 0.00 0.00 82 1007.1
20220930031547 74 313 9.0 0.0 0.00 0.00 0.00 81 1007.2
20220930030037 74 348 8.0 0.0 0.00 0.00 0.00 80 1007.2
20220930024535 75 326 10.0 0.0 0.00 0.00 0.00 80 1007.1
20220930023029 75 336 12.0 0.0 0.00 0.00 0.00 79 1007.1
20220930021525 76 294 10.0 0.0 0.00 0.00 0.00 79 1006.9
20220930020041 77 315 9.0 0.0 0.00 0.00 0.00 77 1006.8
20220930014528 77 319 8.0 0.0 0.00 0.00 0.00 76 1006.7
20220930013021 77 333 10.0 0.0 0.00 0.00 0.00 77 1006.8
20220930011519 78 322 12.0 0.0 0.00 0.00 0.00 77 1006.6
20220930010016 79 326 11.0 0.0 0.00 0.00 0.00 77 1006.3
20220930004519 79 313 10.0 0.0 0.00 0.00 0.00 77 1006.0
20220930003039 80 302 8.0 0.0 0.00 0.00 0.00 76 1005.9
20220930001511 80 303 7.0 0.0 0.00 0.00 0.00 75 1005.8
20220930000022 80 330 7.0 0.0 0.00 0.00 0.00 74 1005.7
20220929234510 81 321 8.0 0.0 0.00 0.00 0.00 72 1005.5
20220929233010 82 316 8.0 0.0 0.00 0.00 0.00 71 1005.2
20220929231508 82 311 8.0 0.0 0.00 0.00 0.00 71 1005.2
20220929230008 82 316 7.0 0.0 0.00 0.00 0.00 71 1005.1